TimeCDT,TemperatureF,Dew PointF,Humidity,Sea Level PressureIn,VisibilityMPH,Wind Direction,Wind SpeedMPH,Gust SpeedMPH,PrecipitationIn,Events,Conditions,WindDirDegrees,DateUTC
12:15 AM,54.5,25.7,33,29.88,10.0,SSW,17.3,-,N/A,,Clear,210,2013-03-21 05:15:00
12:35 AM,54.3,26.1,34,29.87,10.0,SW,17.3,23.0,N/A,,Clear,220,2013-03-21 05:35:00
1:15 AM,53.6,26.6,35,29.85,10.0,SSW,21.9,27.6,N/A,,Scattered Clouds,210,2013-03-21 06:15:00
1:35 AM,53.1,27.7,38,29.84,10.0,SSW,17.3,25.3,N/A,,Scattered Clouds,210,2013-03-21 06:35:00
1:55 AM,52.7,28.6,40,29.82,10.0,SSW,17.3,24.2,N/A,,Scattered Clouds,210,2013-03-21 06:55:00
2:15 AM,52.7,29.3,41,29.82,10.0,SW,19.6,24.2,N/A,,Clear,220,2013-03-21 07:15:00
2:35 AM,52.0,30.4,44,29.81,10.0,SW,17.3,23.0,N/A,,Clear,220,2013-03-21 07:35:00
2:55 AM,51.8,30.9,45,29.80,10.0,SW,16.1,24.2,N/A,,Clear,220,2013-03-21 07:55:00
3:15 AM,49.6,31.1,49,29.79,10.0,SSW,10.4,-,N/A,,Clear,200,2013-03-21 08:15:00
3:35 AM,49.6,31.8,50,29.79,10.0,SW,12.7,-,N/A,,Clear,220,2013-03-21 08:35:00
3:55 AM,50.0,32.0,50,29.77,10.0,SW,13.8,19.6,N/A,,Clear,220,2013-03-21 08:55:00
4:15 AM,49.6,32.0,51,29.76,10.0,SSW,13.8,-,N/A,,Clear,210,2013-03-21 09:15:00
4:35 AM,49.6,32.5,52,29.74,10.0,SW,15.0,20.7,N/A,,Clear,220,2013-03-21 09:35:00
4:55 AM,48.4,32.5,54,29.73,10.0,SW,10.4,-,N/A,,Clear,220,2013-03-21 09:55:00
5:15 AM,47.8,33.3,57,29.72,10.0,WSW,12.7,-,N/A,,Clear,240,2013-03-21 10:15:00
5:35 AM,48.6,34.0,57,29.71,10.0,SW,15.0,19.6,N/A,,Clear,230,2013-03-21 10:35:00
5:55 AM,48.7,34.7,58,29.69,10.0,SW,15.0,-,N/A,,Clear,230,2013-03-21 10:55:00
6:15 AM,48.2,34.7,60,29.69,10.0,SW,13.8,-,N/A,,Clear,230,2013-03-21 11:15:00
6:35 AM,49.3,35.2,58,29.68,10.0,SW,13.8,-,N/A,,Clear,220,2013-03-21 11:35:00
6:55 AM,49.6,35.6,59,29.67,10.0,SW,17.3,-,N/A,,Clear,220,2013-03-21 11:55:00
7:15 AM,49.5,35.6,59,29.67,10.0,WSW,15.0,19.6,N/A,,Clear,240,2013-03-21 12:15:00
7:55 AM,50.4,34.9,55,29.67,10.0,WSW,17.3,-,N/A,,Clear,250,2013-03-21 12:55:00
8:15 AM,49.6,34.9,57,29.67,10.0,West,13.8,-,N/A,,Clear,260,2013-03-21 13:15:00
8:35 AM,50.0,34.7,56,29.67,10.0,West,12.7,-,N/A,,Clear,260,2013-03-21 13:35:00
8:55 AM,50.2,34.7,55,29.67,10.0,WSW,11.5,-,N/A,,Clear,250,2013-03-21 13:55:00
9:15 AM,50.9,34.7,54,29.67,10.0,WSW,12.7,-,N/A,,Clear,250,2013-03-21 14:15:00
9:35 AM,51.8,34.0,51,29.67,10.0,West,12.7,-,N/A,,Clear,260,2013-03-21 14:35:00
9:55 AM,53.4,33.3,46,29.66,10.0,West,13.8,-,N/A,,Clear,260,2013-03-21 14:55:00
10:15 AM,55.9,33.1,42,29.66,10.0,West,13.8,-,N/A,,Clear,260,2013-03-21 15:15:00
10:35 AM,58.5,32.7,38,29.66,10.0,West,11.5,-,N/A,,Clear,270,2013-03-21 15:35:00
10:55 AM,61.5,32.4,33,29.66,10.0,WNW,13.8,-,N/A,,Clear,290,2013-03-21 15:55:00
11:35 AM,66.2,31.1,27,29.64,10.0,NW,17.3,21.9,N/A,,Clear,310,2013-03-21 16:35:00
11:55 AM,67.1,30.2,25,29.63,10.0,NW,19.6,23.0,N/A,,Clear,310,2013-03-21 16:55:00
12:15 PM,67.5,30.0,25,29.62,10.0,NW,17.3,24.2,N/A,,Clear,310,2013-03-21 17:15:00
12:35 PM,67.3,29.3,24,29.62,10.0,NW,13.8,-,N/A,,Clear,310,2013-03-21 17:35:00
12:55 PM,68.0,29.5,24,29.62,10.0,NW,11.5,-,N/A,,Clear,310,2013-03-21 17:55:00
1:15 PM,70.5,28.9,21,29.61,10.0,NW,12.7,18.4,N/A,,Clear,320,2013-03-21 18:15:00
1:35 PM,73.4,28.0,19,29.60,10.0,West,19.6,24.2,N/A,,Clear,270,2013-03-21 18:35:00
1:55 PM,73.4,27.0,18,29.58,10.0,West,16.1,26.5,N/A,,Clear,260,2013-03-21 18:55:00
2:15 PM,73.9,26.8,17,29.58,10.0,West,16.1,31.1,N/A,,Clear,270,2013-03-21 19:15:00
2:35 PM,74.3,26.6,17,29.56,10.0,West,11.5,23.0,N/A,,Clear,270,2013-03-21 19:35:00
2:55 PM,75.6,24.1,15,29.54,10.0,West,17.3,25.3,N/A,,Clear,280,2013-03-21 19:55:00
3:15 PM,74.8,23.9,15,29.53,10.0,NW,17.3,20.7,N/A,,Scattered Clouds,310,2013-03-21 20:15:00
3:35 PM,76.6,24.1,14,29.52,10.0,West,15.0,32.2,N/A,,Scattered Clouds,280,2013-03-21 20:35:00
3:55 PM,76.5,24.3,14,29.51,10.0,WNW,19.6,27.6,N/A,,Clear,300,2013-03-21 20:55:00
4:15 PM,76.8,25.3,15,29.49,10.0,West,11.5,-,N/A,,Scattered Clouds,280,2013-03-21 21:15:00
4:35 PM,77.5,24.8,14,29.49,10.0,West,18.4,26.5,N/A,,Scattered Clouds,280,2013-03-21 21:35:00
4:55 PM,75.7,25.3,15,29.49,10.0,NNW,18.4,21.9,N/A,,Mostly Cloudy,340,2013-03-21 21:55:00
5:15 PM,76.8,23.2,14,29.48,10.0,NW,10.4,17.3,N/A,,Mostly Cloudy,320,2013-03-21 22:15:00
5:35 PM,77.7,21.7,12,29.49,10.0,WNW,21.9,27.6,N/A,,Scattered Clouds,300,2013-03-21 22:35:00
5:55 PM,77.7,19.6,11,29.49,10.0,West,25.3,33.4,N/A,,Clear,280,2013-03-21 22:55:00
6:15 PM,77.2,18.1,11,29.49,10.0,West,25.3,32.2,N/A,,Clear,280,2013-03-21 23:15:00
6:35 PM,76.1,18.3,11,29.49,10.0,WNW,27.6,32.2,N/A,,Clear,290,2013-03-21 23:35:00
6:55 PM,75.4,17.6,11,29.49,10.0,WNW,20.7,28.8,N/A,,Clear,290,2013-03-21 23:55:00
7:15 PM,73.9,18.3,12,29.51,10.0,West,15.0,25.3,N/A,,Clear,280,2013-03-22 00:15:00
7:35 PM,71.8,17.2,13,29.51,10.0,West,17.3,-,N/A,,Clear,280,2013-03-22 00:35:00
7:55 PM,69.4,15.4,13,29.51,10.0,West,12.7,-,N/A,,Clear,280,2013-03-22 00:55:00
8:15 PM,64.0,15.6,15,29.51,10.0,West,10.4,-,N/A,,Clear,280,2013-03-22 01:15:00
8:35 PM,60.8,15.8,17,29.52,10.0,West,9.2,-,N/A,,Clear,280,2013-03-22 01:35:00
8:55 PM,61.2,13.5,16,29.53,10.0,WNW,10.4,17.3,N/A,,Clear,290,2013-03-22 01:55:00
9:15 PM,59.5,15.4,18,29.56,10.0,North,15.0,18.4,N/A,,Clear,350,2013-03-22 02:15:00
9:35 PM,56.8,21.4,25,29.57,10.0,North,10.4,-,N/A,,Clear,10,2013-03-22 02:35:00
9:55 PM,53.1,24.6,33,29.59,10.0,North,6.9,-,N/A,,Clear,360,2013-03-22 02:55:00
10:15 PM,54.1,27.7,36,29.60,10.0,NE,16.1,19.6,N/A,,Clear,40,2013-03-22 03:15:00
10:35 PM,52.9,27.9,38,29.61,10.0,NNW,9.2,-,N/A,,Clear,340,2013-03-22 03:35:00
10:55 PM,48.0,28.2,46,29.62,10.0,North,6.9,-,N/A,,Clear,350,2013-03-22 03:55:00
11:15 PM,45.9,27.5,49,29.63,10.0,North,10.4,-,N/A,,Clear,350,2013-03-22 04:15:00
11:35 PM,46.6,28.2,49,29.65,10.0,NNW,10.4,-,N/A,,Clear,340,2013-03-22 04:35:00
11:55 PM,47.1,28.8,49,29.66,10.0,NNW,12.7,-,N/A,,Clear,340,2013-03-22 04:55:00